Watertown, NY

1:06 PM EST on November 15, 2019 (GMT -0500)
Watertown International

Weather History for KART - October, 2019

Change the Weather History Date:

Monday, October 21, 2019

  Actual Average Record
Temperature  
Mean Temperature 51 °F 46 °F  
Max Temperature 67 °F 56 °F 78 °F (1979)
Min Temperature 34 °F 37 °F 14 °F (1974)
Degree Days  
Heating Degree Days 14 19  
Month to date heating degree days 320 322  
Since 1 July heating degree days 522 596  
Cooling Degree Days 0 0  
Month to date cooling degree days 7 0  
Year to date cooling degree days 348 359  
Moisture  
Dew Point 39 °F    
Average Humidity 73    
Maximum Humidity 100    
Minimum Humidity 45    
Precipitation  
Precipitation 0.00 in 0.11 in 1.64 in (1995)
Month to date precipitation 3.73 2.53  
Year to date precipitation 35.17 28.05  
Sea Level Pressure  
Sea Level Pressure 30.06 in    
Wind  
Wind Speed 6 mph (ENE)    
Max Wind Speed 14 mph    
Max Gust Speed 18 mph    
Visibility 6 miles    
Events      
T = Trace of Precipitation, MM = Missing Value Source: NWS Daily Summary

Daily Weather History Graph

Daily Weather History Graph

Search for Another Location

Airport or City:

Astronomy

Oct. 21, 2019 Rise Set
Actual Time 7:25 AM EDT 6:10 PM EDT
Civil Twilight 6:56 AM EDT 6:40 PM EDT
Nautical Twilight 6:22 AM EDT 7:13 PM EDT
Astronomical Twilight 5:49 AM EDT 7:47 PM EDT
Moon No Moon Rise 2:49 PM EDT (10/21)
Length of Visible Light 11h 43m
Length of Day
10h 44m
Waning Gibbous, 48% of the Moon is Illuminated
Oct 21
Waning Gibbous
Oct 27
New
Nov 4
First Quarter
Nov 12
Full
Nov 19
Last Quarter

Hourly Weather History & Observations

Time (EDT) Temp. Windchill Dew Point Humidity Pressure Visibility Wind Dir Wind Speed Gust Speed Precip Events Conditions
12:56 AM 36.0 °F 33.3 °F 35.1 °F 97% 30.04 in 4.0 mi East 3.5 mph - N/A   Clear
1:07 AM 36.0 °F 33.3 °F 35.1 °F 97% 30.03 in 1.8 mi ENE 3.5 mph - N/A   Clear
1:20 AM 37.0 °F 33.3 °F 35.1 °F 93% 30.03 in 3.0 mi ENE 4.6 mph - N/A   Clear
1:48 AM 37.9 °F 34.4 °F 36.0 °F 93% 30.04 in 1.8 mi East 4.6 mph - N/A   Clear
1:56 AM 37.9 °F 34.4 °F 36.0 °F 93% 30.05 in 1.5 mi East 4.6 mph - N/A   Clear
2:05 AM 37.9 °F 34.4 °F 36.0 °F 93% 30.04 in 2.0 mi East 4.6 mph - N/A   Clear
2:13 AM 37.0 °F 33.3 °F 36.0 °F 96% 30.04 in 1.8 mi East 4.6 mph - N/A   Clear
2:20 AM 37.9 °F 34.4 °F 36.0 °F 93% 30.05 in 3.0 mi East 4.6 mph - N/A   Clear
2:56 AM 37.9 °F 35.5 °F 37.0 °F 97% 30.06 in 3.0 mi East 3.5 mph - N/A   Clear
3:14 AM 37.0 °F 34.5 °F 37.0 °F 100% 30.05 in 2.5 mi East 3.5 mph - N/A   Clear
3:36 AM 37.9 °F 34.4 °F 37.0 °F 97% 30.05 in 3.0 mi East 4.6 mph - N/A   Clear
3:56 AM 37.0 °F 33.3 °F 36.0 °F 96% 30.07 in 3.0 mi East 4.6 mph - N/A   Clear
4:09 AM 36.0 °F 33.3 °F 34.0 °F 93% 30.07 in 2.0 mi East 3.5 mph - N/A   Clear
4:32 AM 35.1 °F - 34.0 °F 96% 30.07 in 1.5 mi Calm Calm - N/A   Clear
4:43 AM 34.0 °F 31.0 °F 34.0 °F 100% 30.07 in 2.5 mi East 3.5 mph - N/A   Clear
4:56 AM 35.1 °F 31.0 °F 33.1 °F 92% 30.08 in 2.5 mi ENE 4.6 mph - N/A   Clear
5:56 AM 35.1 °F 31.0 °F 34.0 °F 96% 30.10 in 2.5 mi East 4.6 mph - N/A   Clear
6:42 AM 36.0 °F 32.1 °F 35.1 °F 97% 30.10 in 3.0 mi East 4.6 mph - N/A   Clear
6:56 AM 35.1 °F 31.0 °F 34.0 °F 96% 30.10 in 3.0 mi East 4.6 mph - N/A   Clear
7:30 AM 35.1 °F 32.2 °F 34.0 °F 96% 30.10 in 2.5 mi East 3.5 mph - N/A   Clear
7:44 AM 36.0 °F 33.3 °F 35.1 °F 97% 30.11 in 3.0 mi East 3.5 mph - N/A   Clear
7:56 AM 36.0 °F 32.1 °F 35.1 °F 97% 30.12 in 3.0 mi East 4.6 mph - N/A   Clear
8:56 AM 43.0 °F 41.3 °F 41.0 °F 93% 30.14 in 6.0 mi NE 3.5 mph - N/A   Clear
9:56 AM 51.1 °F - 46.9 °F 86% 30.14 in 10.0 mi Calm Calm - N/A   Clear
10:56 AM 59.0 °F - 50.0 °F 72% 30.13 in 10.0 mi NE 9.2 mph - N/A   Clear
11:56 AM 61.0 °F - 48.0 °F 62% 30.12 in 10.0 mi ENE 11.5 mph - N/A   Clear
12:56 PM 63.0 °F - 46.9 °F 56% 30.09 in 10.0 mi ENE 10.4 mph - N/A   Clear
1:56 PM 64.9 °F - 45.0 °F 48% 30.06 in 10.0 mi East 8.1 mph - N/A   Clear
2:56 PM 66.9 °F - 46.0 °F 47% 30.04 in 10.0 mi ENE 9.2 mph - N/A   Clear
4:56 PM 64.9 °F - 46.0 °F 50% 30.04 in 10.0 mi NE 10.4 mph - N/A   Clear
5:56 PM 62.1 °F - 45.0 °F 53% 30.04 in 10.0 mi ENE 4.6 mph - N/A   Clear
6:56 PM 54.0 °F - 44.1 °F 69% 30.05 in 10.0 mi NNE 4.6 mph - N/A   Clear
7:56 PM 48.9 °F - 43.0 °F 80% 30.04 in 10.0 mi East 5.8 mph - N/A   Clear
8:56 PM 50.0 °F - 44.1 °F 80% 30.03 in 10.0 mi East 3.5 mph - N/A   Clear
9:56 PM 48.9 °F - 44.1 °F 83% 30.00 in 10.0 mi ENE 6.9 mph - N/A   Clear
10:56 PM 48.0 °F - 43.0 °F 83% 29.98 in 10.0 mi East 3.5 mph - N/A   Clear
11:56 PM 46.9 °F - 42.1 °F 83% 29.97 in 10.0 mi Calm Calm - N/A   Clear